Platteville, WI

7:36 AM CST on January 20, 2017 (GMT -0600)
Platteville Municipal

Weather History for KPVB - January, 2012

Change the Weather History Date:

Tuesday, January 17, 2012

  Actual Average (KDBQ) Record (KDBQ)
Temperature  
Mean Temperature 19 °F -  
Max Temperature 32 °F 24 °F 60 °F (1894)
Min Temperature 5 °F 9 °F -23 °F (1982)
Degree Days  
Heating Degree Days 46    
Moisture  
Dew Point 19 °F    
Average Humidity 82    
Maximum Humidity 93    
Minimum Humidity 67    
Precipitation  
Precipitation 0.00 in - - ()
Sea Level Pressure  
Sea Level Pressure 29.92 in    
Wind  
Wind Speed 15 mph (NW)    
Max Wind Speed 21 mph    
Max Gust Speed 26 mph    
Visibility 7 miles    
Events      
Averages and records for this station are not official NWS values.
T = Trace of Precipitation, MM = Missing Value Source: NWS Daily Summary

Daily Weather History Graph

Daily Weather History Graph

Search for Another Location

Airport or City:

Trip Planner

Search our weather history database for the weather conditions in past years. The results will help you decide how hot, cold, wet, or windy it might be!

Date:

Astronomy

Jan. 17, 2012 Rise Set
Actual Time 7:28 AM CST 4:55 PM CST
Civil Twilight 6:57 AM CST 5:26 PM CST
Nautical Twilight 6:22 AM CST 6:01 PM CST
Astronomical Twilight 5:48 AM CST 6:35 PM CST
Moon 1:47 AM CST (1/17) 11:49 AM CST (1/17)
Length of Visible Light 10h 29m
Length of Day
9h 26m
Waning Crescent, 35% of the Moon is Illuminated
Jan 17
Waning Crescent
Jan 23
New
Jan 30
First Quarter
Feb 7
Full
Feb 14
Last Quarter

Hourly Weather History & Observations

Time (CST) Temp. Windchill Dew Point Humidity Pressure Visibility Wind Dir Wind Speed Gust Speed Precip Events Conditions
12:15 AM 32.0 °F 21.6 °F 28.4 °F 87% 29.72 in 10.0 mi NNE 15.0 mph - N/A   Overcast
12:55 AM 32.0 °F 21.6 °F 28.4 °F 87% 29.72 in 10.0 mi NNE 15.0 mph 18.4 mph N/A   Overcast
1:15 AM 32.0 °F 20.8 °F 28.4 °F 87% 29.71 in 10.0 mi NNE 17.3 mph - N/A   Overcast
1:35 AM 32.0 °F 20.5 °F 26.6 °F 80% 29.70 in 10.0 mi NNE 18.4 mph - N/A   Overcast
1:55 AM 32.0 °F 21.2 °F 28.4 °F 87% 29.69 in 10.0 mi NNE 16.1 mph - N/A   Overcast
2:15 AM 32.0 °F 21.6 °F 28.4 °F 87% 29.71 in 10.0 mi NNE 15.0 mph 18.4 mph N/A   Overcast
2:35 AM 32.0 °F 22.1 °F 28.4 °F 87% 29.71 in 10.0 mi NNE 13.8 mph 23.0 mph N/A   Overcast
2:55 AM 32.0 °F 21.6 °F 28.4 °F 87% 29.69 in 10.0 mi North 15.0 mph - N/A   Overcast
3:15 AM 32.0 °F 21.6 °F 28.4 °F 87% 29.69 in 7.0 mi North 15.0 mph - N/A   Overcast
3:35 AM 32.0 °F 21.6 °F 28.4 °F 87% 29.70 in 7.0 mi North 15.0 mph - N/A   Overcast
3:55 AM 32.0 °F 21.6 °F 28.4 °F 87% 29.71 in 7.0 mi North 15.0 mph 19.6 mph N/A   Overcast
4:15 AM 32.0 °F 21.2 °F 28.4 °F 87% 29.71 in 7.0 mi North 16.1 mph - N/A   Overcast
4:35 AM 32.0 °F 21.6 °F 28.4 °F 87% 29.71 in 7.0 mi North 15.0 mph - N/A   Overcast
4:55 AM 32.0 °F 19.8 °F 28.4 °F 87% 29.68 in 5.0 mi North 20.7 mph - N/A   Overcast
6:15 AM 30.2 °F 18.5 °F 28.4 °F 93% 29.73 in 4.0 mi NNW 17.3 mph 24.2 mph N/A   Overcast
6:55 AM 28.4 °F 17.5 °F 26.6 °F 93% 29.78 in 10.0 mi NNW 13.8 mph 19.6 mph N/A   Overcast
7:15 AM 28.4 °F 16.2 °F 26.6 °F 93% 29.78 in 5.0 mi NNW 17.3 mph - N/A   Overcast
7:35 AM 28.4 °F 15.4 °F 24.8 °F 86% 29.80 in 1.2 mi NNW 19.6 mph - N/A   Overcast
7:55 AM 28.4 °F 17.5 °F 26.6 °F 93% 29.81 in 0.5 mi NW 13.8 mph 18.4 mph N/A   Overcast
8:15 AM 26.6 °F 13.4 °F 24.8 °F 93% 29.82 in 0.8 mi NNW 18.4 mph 24.2 mph N/A   Overcast
8:35 AM 26.6 °F 14.7 °F 23.0 °F 86% 29.82 in 1.2 mi NNW 15.0 mph - N/A   Overcast
8:55 AM 26.6 °F 14.7 °F 23.0 °F 86% 29.83 in 2.5 mi NNW 15.0 mph 24.2 mph N/A   Overcast
9:15 AM 26.6 °F 14.3 °F 23.0 °F 86% 29.85 in 1.8 mi NW 16.1 mph - N/A   Overcast
9:35 AM 26.6 °F 15.2 °F 23.0 °F 86% 29.86 in 1.2 mi NW 13.8 mph 18.4 mph N/A   Overcast
10:15 AM 26.6 °F 14.3 °F 21.2 °F 80% 29.89 in 2.0 mi NW 16.1 mph 24.2 mph N/A   Overcast
10:35 AM 26.6 °F 13.1 °F 21.2 °F 80% 29.91 in 7.0 mi NW 19.6 mph - N/A   Overcast
11:15 AM 24.8 °F 11.9 °F 21.2 °F 86% 29.94 in 1.5 mi NW 16.1 mph 24.2 mph N/A   Overcast
12:15 PM 23.0 °F 10.6 °F 19.4 °F 86% 29.94 in 4.0 mi NW 13.8 mph 17.3 mph N/A   Overcast
12:35 PM 23.0 °F 8.3 °F 17.6 °F 80% 29.95 in 2.5 mi NW 19.6 mph 25.3 mph N/A   Overcast
1:35 PM 23.0 °F 9.6 °F 17.6 °F 80% 29.98 in 4.0 mi WNW 16.1 mph - N/A   Overcast
1:55 PM 21.2 °F 5.6 °F 15.8 °F 80% 29.99 in 3.0 mi NW 20.7 mph 26.5 mph N/A   Overcast
2:35 PM 21.2 °F 6.8 °F 15.8 °F 80% 30.02 in 4.0 mi WNW 17.3 mph - N/A   Overcast
2:55 PM 21.2 °F 8.3 °F 14.0 °F 74% 30.04 in 7.0 mi WNW 13.8 mph - N/A   Overcast
3:15 PM 19.4 °F 4.1 °F 14.0 °F 80% 30.06 in 7.0 mi WNW 18.4 mph 24.2 mph N/A   Overcast
3:35 PM 19.4 °F 7.2 °F 14.0 °F 80% 30.07 in 10.0 mi WNW 11.5 mph - N/A   Mostly Cloudy
4:15 PM 19.4 °F 6.6 °F 12.2 °F 74% 30.10 in 10.0 mi WNW 12.7 mph - N/A   Mostly Cloudy
4:35 PM 19.4 °F 6.0 °F 10.4 °F 68% 30.11 in 10.0 mi WNW 13.8 mph 17.3 mph N/A   Scattered Clouds
4:55 PM 17.6 °F 5.0 °F 10.4 °F 73% 30.12 in 10.0 mi WNW 11.5 mph - N/A   Clear
5:15 PM 17.6 °F 4.3 °F 8.6 °F 68% 30.13 in 10.0 mi WNW 12.7 mph - N/A   Clear
5:35 PM 15.8 °F 4.2 °F 8.6 °F 73% 30.14 in 10.0 mi WNW 9.2 mph - N/A   Clear
5:55 PM 14.0 °F 2.0 °F 6.8 °F 73% 30.15 in 10.0 mi WNW 9.2 mph - N/A   Clear
7:15 PM 12.2 °F -2.5 °F 5.0 °F 73% 30.20 in 10.0 mi WNW 12.7 mph - N/A   Clear
7:35 PM 12.2 °F -2.5 °F 5.0 °F 73% 30.20 in 10.0 mi WNW 12.7 mph - N/A   Clear
8:15 PM 12.2 °F -0.2 °F 3.2 °F 67% 30.21 in 10.0 mi WNW 9.2 mph - N/A   Clear
8:35 PM 12.2 °F 1.7 °F 3.2 °F 67% 30.22 in 10.0 mi WNW 6.9 mph - N/A   Clear
9:15 PM 10.4 °F -0.4 °F 3.2 °F 73% 30.23 in 10.0 mi West 6.9 mph - N/A   Clear
9:55 PM 8.6 °F -2.6 °F 1.4 °F 73% 30.23 in 10.0 mi WNW 6.9 mph - N/A   Clear
10:35 PM 6.8 °F -5.9 °F -0.4 °F 72% 30.24 in 10.0 mi West 8.1 mph - N/A   Clear
10:55 PM 5.0 °F -10.0 °F -0.4 °F 78% 30.25 in 10.0 mi West 10.4 mph - N/A   Clear